Regional Weather Roundup
Issued by NWS Green Bay, WI

Home | Current Version | Previous Version | Text Only | Print | Product List | Glossary On
Versions: 1 2 3 4 5 6 7 8 9 10 11 12 13 14 15 16 17 18 19 20 21 22 23 24 25 26 27 28 29 30 31 32 33 34 35 36 37 38 39 40 41 42 43 44 45 46 47 48 49 50
000
ASUS43 KGRB 291211
RWRGRB

NORTH-CENTRAL AND NORTHEAST WISCONSIN REGIONAL WEATHER ROUNDUP
NATIONAL WEATHER SERVICE GREEN BAY WI
700 AM CDT FRI APR 29 2016

WIZ005-009-010>012-018-019-291300-
NORTH CENTRAL WISCONSIN

CITY           SKY/WX    TMP DP  RH WIND       PRES   REMARKS
IRONWOOD       SUNNY     30  28  93 SW3       30.14S
MANITOWISH WTR CLOUDY    37  36  96 NW3       30.14R
ARBOR VITAE    CLOUDY    39  37  91 CALM      30.14R
EAGLE RIVER    CLOUDY    38  35  88 N6        30.13S
LAND O LAKES   CLOUDY    38  34  84 CALM      30.15R
RHINELANDER    CLOUDY    38  36  92 N3        30.13R
PHILLIPS       CLOUDY    38  35  90 CALM      30.13S
ANTIGO         CLOUDY    37  36  96 N6        30.13R
TOMAHAWK       CLOUDY    37  36  96 CALM      30.14R
MERRILL        CLOUDY    37  37 100 CALM      30.14R
$$

WIZ013-073-291300-
NORTHEAST WISCONSIN

CITY           SKY/WX    TMP DP  RH WIND       PRES   REMARKS
IRON MOUNTAIN  CLOUDY    39  27  62 NW6       30.12R
MARINETTE      CLOUDY    39  28  65 N5        30.13R
OCONTO         CLOUDY    41  32  69 N5        30.13R
$$

WIZ017-030-035>037-045-291300-
CENTRAL WISCONSIN

CITY           SKY/WX    TMP DP  RH WIND       PRES   REMARKS
MEDFORD        CLOUDY    36  36 100 CALM      30.13R
WAUSAU         CLOUDY    40  36  86 N6        30.12R
MOSINEE        CLOUDY    37  37 100 N7        30.13R
MARSHFIELD     CLOUDY    39  35  86 N7        30.12R
WISC RAPIDS    CLOUDY    40  34  79 NE9       30.14R
STEVENS POINT  CLOUDY    36  35  96 N6        30.13R
WAUPACA        CLOUDY    41  36  83 N3        30.13R
SHAWANO        CLOUDY    42  36  81 N6        30.14R
CLINTONVILLE   CLOUDY    37  34  87 CALM      30.13R
WAUTOMA        NOT AVBL
$$

WIZ038-039-048-051-291300-
FOX VALLEY

CITY           SKY/WX    TMP DP  RH WIND       PRES   REMARKS
NWS GREEN BAY  CLOUDY    41  34  76 N6        30.12R
APPLETON       CLOUDY    39  34  81 N8        30.10R
OSHKOSH        CLOUDY    41  35  79 N9        30.11R
FOND DU LAC    CLOUDY    41  38  89 N5        30.11R
$$

WIZ022-050-052-291300-
EAST CENTRAL WISCONSIN

CITY           SKY/WX    TMP DP  RH WIND       PRES   REMARKS
EPHRAIM        CLOUDY    39  32  75 NE3       30.11R
STURGEON BAY   CLOUDY    39  32  75 NE5       30.14R
MANITOWOC      LGT RAIN  38  37  97 CALM      30.12R
SHEBOYGAN      CLOUDY    39  35  86 N5        30.10R
$$

LMZ563-521-522-541>543-291300-
LAKESHORE

STATION/POSITION TIME  TEMP    WIND        PRES    VSBY  WAVE
                       AIR SEA DIR/SP/G                  HT/PER
                 (UTC) (F)     (DEG/KT/KT) (MB)    (MI)  (FT/S)
SHEBOYGAN LKSHOR 1200   39      20/ 10/ 11 1020.4R
KEWAUNEE LKSHORE 1100   40     310/  3/  3 1018.1R
ALGOMA MARINA    1145          350/  3/  5   N/A
NORTHPORT PIER   1100   40     360/  6/  7 1019.6R
N MID LAKE BUOY  1150   40 38  120/ 10/ 12 1020.5R         1
CHAMBERS ISLAND  1100   40      10/ 12/ 13 1019.6R
MENOMINEE LKSHOR 1100   41      10/ 12/ 13 1018.4R
$$




USA.gov is the U.S. government's official web portal to all federal, state and local government web resources and services.